QZS-3 (MICHIBIKI-3) (42917 NORAD) Tracking and Keplerian Element Data

This shows tracking and keplerian element data for the satellite.

Feedback or suggestion? Click here.




ElementValue
Catalog42917
NameQZS-3 (MICHIBIKI-3)
Epoch Orbit1488
Epoch Day261.89348375
Epoch Year2021
RAAN193.2698
Inclination0.0515
Eccentricity0.0001776
Argument of Perigee350.7894
Mean Anonmoly262.6508
Mean Motion1.00269607
Decay Rate-3.72E-06
L11 42917U 17048A 21261.89348375 -.00000372 00000-0 00000-0 0 9995
L22 42917 0.0515 193.2698 0001776 350.7894 262.6508 1.00269607 14882

Live tracking and technical data element details for QZS-3 (MICHIBIKI-3) (NORAD 42917). QZS-3 (MICHIBIKI-3) can be tracked NOW for your location showing map with azimuth and elevation plus other details from your city location.

Track the satellite on the map from your city or location and see movement details for azimuth, elevation, latitude, longitude, range, height, and movement on the map or in text.







IsCatalogInMostPopularTable: catalog: 42917, numindb: 676
Update: records affected: 1



GetName: 42917 QZS-3 (MICHIBIKI-3)

Hit Count: updated at: Fri, 24 Sep 2021 18:23:34 GMT